Location: Unspecified
(0.0000°N, 0.0000°E)
Time: 19:27:24
(UTC+00:00)

Hubble Space Telescope - Pass Details

Date: 24 February 2021
Orbit: 536 x 539 km, 28.5° (Epoch: 25 February)

Event Time Altitude Azimuth Distance (km) Brightness Sun altitude
Rises 18:34:10 0° 223° (SW) 2,670 5.3 -5.2°
Reaches altitude 10° 18:36:39 10° 211° (SSW) 1,779 4.0 -5.8°
Maximum altitude 18:40:14 28° 150° (SSE) 1,010 2.0 -6.7°
Drops below altitude 10° 18:43:48 10° 90° (E) 1,777 2.8 -7.6°
Enters shadow 18:43:59 - 89° (E) 1,840 2.8 -7.6°
